User: anonymous   Login
Location: Bangkok
(13.7500°N, 100.5170°E)
Time: 02:11:17
(UTC+07:00)
Language:

Cosmos 1802 Rocket - Orbit

View from above orbital plane
View from above orbital plane
View from above satellite
View from above satellite

Ground track
Ground track

The orbit data is extracted from the following two-line orbital elements,

1 17160U 86093B   17049.79522840 +.00000037 +00000-0 +21972-4 0  9994
2 17160 082.9305 152.1437 0040302 118.1174 352.8859 13.74595401516336
Epoch (UTC): 18 February 2017 19:05:07
Eccentricity: 0.0040302
inclination: 82.9305°
perigee height: 953 km
apogee height: 1013 km
right ascension of ascending node: 152.1437°
argument of perigee: 118.1174°
revolutions per day: 13.74595401
mean anomaly at epoch: 352.8859°
orbit number at epoch: 51633

The dashed part of the orbit path shows where the satellite is in the earth's shadow,  

DLR